Current Version              Previous Version:    01  02  03  04  05  06  07  08  09  10  11  12  13  14  15  16  17  18  19  20  21  22  23  24  25  26  27  28  29  30  
   31  32  33  34  35  36  37  38  39  40  41  42  43  44  45  46  47  48  49  50  51  52  53  54  55  56  57  58  59  60  

[Printable]
556
ASUS44 KFWD 161015
RWRTX
NORTH TEXAS HOURLY WEATHER ROUNDUP
NATIONAL WEATHER SERVICE FORT WORTH TX
500 AM CDT WED APR 16 2014

NOTE: "FAIR" INDICATES FEW OR NO CLOUDS BELOW 12,000 FEET WITH NO
SIGNIFICANT WEATHER AND/OR OBSTRUCTIONS TO VISIBILITY.

TXZ118-119-161100-
DALLAS/FORT WORTH METROPLEX

CITY           SKY/WX    TMP DP  RH WIND       PRES   REMARKS
DFW AIRPORT    MOCLDY    47  30  51 S9        30.08R
DALLAS LOVE    MOCLDY    49  29  46 S17       30.09S
FTW MEACHAM    PTCLDY    45  31  58 S9        30.07R
DAL-EXECUTIVE  CLEAR     46  29  51 S8G16     30.08S
FTW-ALLIANCE   PTCLDY    40  31  70 S5        30.06S WCI  37
FTW-NAS-JRB    CLEAR     46  28  49 S8        30.12R
FTW-SPINKS     CLEAR     44  31  58 S10       30.09S WCI  39
ARLINGTON      CLEAR     44  32  62 S6        30.08R
GRAND PRAIRIE  CLEAR     48  30  49 S7        30.11R
ADDISON        PTCLDY    48  31  53 S9        30.10R
MESQUITE       CLEAR     37  33  86 S5        30.09F WCI  33
LANCASTER      CLEAR     39  33  78 CALM      30.10S
$$

TXZ091>094-102>105-117-120-121-131>134-161100-
NORTH CENTRAL TEXAS

CITY           SKY/WX    TMP DP  RH WIND       PRES   REMARKS
SHRMAN/DENISON PTCLDY    46  29  53 SE13      30.08S WCI  40
GAINESVILLE    MOCLDY    40  32  71 S3        30.08F
BOWIE          MOCLDY    45  31  59 SE13      30.03F WCI  39
BRIDGEPORT     PTCLDY    44  28  51 SE7       30.06F
DECATUR        PTCLDY    45  29  55 S10       30.05F WCI  39
DENTON         PTCLDY    44  31  60 SE5       30.07S
MCKINNEY       PTCLDY    44  32  62 SE3       30.08S
GREENVILLE     PTCLDY    39  32  75 SE8       30.10S WCI  34
ROCKWALL       CLEAR     42  32  67 E7        30.08S WCI  38
TERRELL        CLEAR     44  33  65 SE10      30.10F WCI  39
WAXAHACHIE     CLEAR     39  31  72 S5        30.11R WCI  36
CLEBURNE       CLEAR     43  32  65 S9        30.10S WCI  37
GRANBURY       CLEAR     47  31  52 SE8       30.07F
$$

TXZ083>090-098>101-113>116-127>130-139>142-154-155-161100-
WESTERN NORTH TEXAS

CITY           SKY/WX    TMP DP  RH WIND       PRES   REMARKS
WICHITA FALLS  MOCLDY    47  26  44 S14       29.99S
WF-KICKAPOO    MOCLDY    47  26  42 S10       30.01S
VERNON         PTCLDY    49  22  35 SE13      29.94F
ABILENE        MOCLDY    50  20  30 S16       29.95F
ABILENE-DYESS  MOCLDY    50  20  30 S18G26    29.94S
BRECKENRIDGE   PTCLDY    49  25  39 S16       29.99F
GRAHAM         PTCLDY    45  28  51 SE8       30.00S
MINERAL WELLS  CLEAR     41  30  65 SE10      30.04S WCI  35
STEPHENVILLE   CLEAR     40  30  66 SE6       30.07F WCI  36
COMANCHE       CLEAR     43  27  54 S12       30.03F WCI  37
BROWNWOOD      CLEAR     41  27  56 SE7       30.04R WCI  36
COLEMAN        PTCLDY    40  26  57 S7        30.01S WCI  36
BRADY            N/A     43  21  42 SE8       30.01F WCI  38
$$

TXZ143>147-156>162-174-175-161100-
CENTRAL TEXAS

CITY           SKY/WX    TMP DP  RH WIND       PRES   REMARKS
WACO           CLEAR     48  33  56 S15       30.11S
WACO-MCGREGOR  CLEAR     39  28  65 S7        30.11F WCI  34
HILLSBORO      PTCLDY    45  31  58 SE9       30.10S WCI  40
CORSICANA      CLEAR     41  33  73 SE8       30.13S WCI  36
MEXIA          CLEAR     39  35  84 SE5       30.11F WCI  36
HEARNE         CLEAR     40  37  86 SE3       30.14S
CAMERON        CLEAR     46  32  57 S8        30.11F
TEMPLE         CLEAR     37  28  70 SE7         N/A  WCI  32
KILLEEN        CLEAR     41  30  65 S6        30.08F WCI  37
KILLEEN-SKYLRK CLEAR     46  30  53 S8        30.08F
FORT HOOD      CLEAR     45  31  58 SE6       30.08F
GATESVILLE     CLEAR     39  32  75 CALM      30.11S
HAMILTON       CLEAR     42  29  60 S9        30.06F WCI  37
LAMPASAS       CLEAR     40  32  73 S6        30.06F WCI  36
$$

TXZ095>097-106>112-122>126-135>138-148>153-164>167-161100-
EAST TEXAS

CITY           SKY/WX    TMP DP  RH WIND       PRES   REMARKS
PARIS          CLEAR     43  30  61 S10       30.12S WCI  37
SULPHUR SPRNGS PTCLDY    47  30  51 S12G17    30.14S
CLARKSVILLE    CLEAR     41  34  75 CALM      30.13F
MOUNT PLEASANT CLEAR     37  35  92 SE6       30.17S WCI  32
GILMER         CLEAR     39  34  81 SE6       30.17S WCI  35
MINEOLA        CLEAR     36  36 100 SE3       30.15S
TYLER          CLEAR     39  32  76 SE7       30.14S WCI  34
LONGVIEW       CLEAR     42  34  73 SE7       30.17R WCI  38
MARSHALL       CLEAR     39  34  80 S3        30.20R
ATHENS         CLEAR     34  32  93 CALM      30.13F
PALESTINE      CLEAR     45  31  59 SE6       30.17S
JACKSONVILLE   CLEAR     41  32  70 S5        30.16S WCI  38
HENDERSON      CLEAR     35  33  92 CALM      30.18R
NACOGDOCHES    CLEAR     39  34  81 SE7       30.18R WCI  34
LUFKIN         CLEAR     40  33  76 E7        30.18R WCI  35
$$

SUPPLEMENTAL OBSERVATIONS (CENTRAL)

CITY           SKY/WX    TMP DP  RH WIND       PRES   REMARKS
LAKE TEXOMA      N/A     41  32  70 E6          N/A  WCI  37
PAT MAYSE LAKE   N/A     46  32  57 SE13        N/A
PALESTINE        N/A     36  32  87 CALM        N/A
MCGREGOR         N/A     39  32  75 S7          N/A  WCI  34
TEMPLE           N/A     41  32  70 S3          N/A
$$

SUPPLEMENTAL OBSERVATIONS (WEST)

CITY           SKY/WX    TMP DP  RH WIND       PRES   REMARKS
MILLERS CREEK    N/A     46  25  42 S10         N/A
POSSUM KINGDOM   N/A     46  27  46 SE10        N/A
GRANBURY         N/A     46  30  53 SE8         N/A
HAMBY            N/A     48  21  34 S14         N/A
IVIE RESERVOIR   N/A     45  23  42 E5          N/A
COLORADO BEND    N/A     45  30  57 S7          N/A
$$

SUPPLEMENTAL OBSERVATIONS (EAST)

CITY           SKY/WX    TMP DP  RH WIND       PRES   REMARKS
CLARKSVILLE      N/A     43  34  70 SE7         N/A  WCI  39
TEXARKANA        N/A     37  34  87 SE2         N/A
LINDEN           N/A     36  32  87 CALM        N/A
GILMER           N/A     39  32  75 SE5         N/A  WCI  36
HENDERSON        N/A     37  32  81 SE2         N/A
LUFKIN           N/A     39  36  87 MISG        N/A
N SABINE NF      N/A     37  36  93 MISG        N/A
S SABINE NF      N/A     39  34  81 W2          N/A
$$

SUPPLEMENTAL OBSERVATIONS ARE A COLLECTION OF AUTOMATED INSTRUMENTS
THAT ARE MAINTAINED BY A VARIETY OF FEDERAL AND STATE AGENCIES.
CERTAIN ELEMENTS...SUCH AS HUMIDITY VALUES AND SUSTAINED WIND
SPEEDS...MAY BE APPROXIMATED.